This demonstration page uses our WeatherBlox Daily Observations layout. Learn more.

Left ArrowRight Arrow

Hourly Observations for August 14, 2021

Temp ( °F °C ) Dew Point ( °F °C ) Humidity (%) Winds ( mph kmh ) Pressure ( in mb ) Visibility ( mi km ) Precip ( " mm )
12:51 am 00:51 Mostly Cloudy 73 22.8 67 19.4 81 81 S 8 13 29.99 1016 10 16 0.00 0.00
1:51 am 01:51 Cloudy 73 22.8 67 19.4 81 81 SSE 9 15 29.98 1015 10 16 0.00 0.00
2:51 am 02:51 Cloudy 73 22.8 68 20 84 84 SSE 7 11 29.98 1015 10 16 0.00 0.00
3:51 am 03:51 Cloudy 73 22.8 68 20 84 84 ENE 3 6 29.97 1015 10 16 0.00 0.00
4:51 am 04:51 Cloudy 73 22.8 67 19.4 81 81 E 3 6 30.00 1016 10 16 0.00 0.00
5:51 am 05:51 Cloudy 73 22.8 67 19.4 81 81 ESE 3 6 30.03 1017 10 16 0.00 0.00
6:51 am 06:51 Mostly Cloudy 73 22.8 67 19.4 81 81 SSE 7 11 30.04 1017 10 16 0.00 0.00
7:51 am 07:51 Cloudy with Light Rain 71 21.7 70 21.1 96 96 SE 7 11 30.06 1018 8 13 0.01 0.25
8:51 am 08:51 Mostly Cloudy 71 21.7 70 21.1 96 96 E 6 9 30.05 1018 10 16 0.08 2.03
9:51 am 09:51 Cloudy 77 25 68 20 74 74 Calm 30.05 1018 10 16 0.00 0.00
10:51 am 10:51 Mostly Sunny 78 25.6 69 20.6 74 74 VRB 3 6 30.04 1017 10 16 0.00 0.00
11:51 am 11:51 Mostly Sunny 83 28.3 69 20.6 63 63 VRB 6 9 30.00 1016 10 16 0.00 0.00
12:51 pm 12:51 Mostly Sunny 83 28.3 66 18.9 57 57 undefined N/A 29.98 1015 10 16 0.00 0.00
1:51 pm 13:51 Sunny 86 30 65 18.3 49 49 SE 6 9 29.95 1014 10 16 0.00 0.00
2:51 pm 14:51 Mostly Sunny 87 30.6 66 18.9 50 50 VRB 3 6 29.94 1014 10 16 0.00 0.00
3:51 pm 15:51 Mostly Sunny 87 30.6 64 17.8 46 46 SSE 9 15 29.91 1013 10 16 0.00 0.00
4:51 pm 16:51 Cloudy with Nearby Thunderstorms 80 26.7 70 21.1 71 71 undefined N/A 29.93 1014 10 16 0.04 1.02
5:02 pm 17:02 Cloudy with Thunderstorms 79 26.1 71 21.7 77 77 NNE 20 31 29.89 1012 8 13 0.00 0.00
5:34 pm 17:34 Cloudy with Light Rain 75 23.9 70 21.1 84 84 NE 9 15 29.90 1013 10 16 0.01 0.25
5:51 pm 17:51 Cloudy 77 25 70 21.1 79 79 Calm 29.96 1014 10 16 0.01 0.25
6:19 pm 18:19 Cloudy with Thunderstorms 79 26.1 69 20.6 72 72 SSE 12 19 29.89 1012 10 16 0.00 0.00
6:40 pm 18:40 Cloudy with Nearby Thunderstorms 78 25.6 70 21.1 76 76 SSE 7 11 29.91 1013 10 16 0.00 0.00
6:51 pm 18:51 Mostly Cloudy with Nearby Thunderstorms 78 25.6 70 21.1 76 76 SSE 7 11 29.97 1015 10 16 0.00 0.00
7:08 pm 19:08 Mostly Cloudy 78 25.6 70 21.1 76 76 Calm 29.92 1013 10 16 0.00 0.00
7:51 pm 19:51 Mostly Cloudy 78 25.6 69 20.6 74 74 SSE 6 9 29.99 1016 10 16 0.00 0.00
8:51 pm 20:51 Mostly Cloudy 77 25 70 21.1 79 79 SE 8 13 30.02 1017 10 16 0.00 0.00
9:51 pm 21:51 Mostly Cloudy 76 24.4 69 20.6 79 79 SSE 7 11 30.01 1016 10 16 0.00 0.00
10:51 pm 22:51 Partly Cloudy 75 23.9 70 21.1 84 84 SE 5 7 30.00 1016 10 16 0.00 0.00
11:51 pm 23:51 Clear 75 23.9 70 21.1 84 84 E 3 6 29.98 1015 10 16 0.00 0.00

Powered by AerisWeather